(236194) = 2005 WD57

Discovered at Gnosca on 2005-11-20 by S. Sposetti.

Orbit

Orbit type: Main Belt

Note: WebGL enabled browser required.

epoch2024-03-31.0
epoch JD2460400.5
perihelion date2022-03-03.16388
perihelion JD2459641.66388
argument of perihelion (°)187.18271
ascending node (°)233.41366
inclination (°)2.13570
eccentricity0.1083807
perihelion distance (AU)1.9560225
Tisserand w.r.t. Jupiter3.7
ΔV w.r.t. Earth (km/sec)8.6
semimajor axis (AU)2.1937866
mean anomaly (°)230.17613
mean daily motion (°/day)0.30332790
aphelion distance (AU)2.432
period (years)3.25
P-vector [x]0.49102876
P-vector [y]0.80110044
P-vector [z]0.34224090
Q-vector [x]-0.87062928
Q-vector [y]0.46477662
Q-vector [z]0.16120592
absolute magnitude17.47
phase slope0.15
uncertainty0
referenceMPEC 2024-F28
observations used449
oppositions13
arc length (days)7431
first opposition used2003
last opposition used2023
residual rms (arc-secs)0.75
perturbers coarse indicatorM-v
perturbers precise indicator003Ek
first observation date used2003-01-08.0
last observation date used2023-05-14.0
computer nameMPCLINUX
JD of orbit computation2456465.487140
perihelion JD uncertainty (days)1.0697E-04
argument of perihelion uncertainty (°)1.4143E-04
ascending node uncertainty (°)1.3784E-04
inclination uncertainty (°)4.5210E-06
eccentricity uncertainty 4.1869E-08
perihelion distance uncertainty (AU)8.9094E-08
Minimum Orbit Intersection Distances (in AU)
for orbit epoch: 2460400.5, reference: E2024-F28
Mercury1.64463
Venus1.23434
Earth0.96891
Mars0.41622
Jupiter2.8246
Saturn7.04284
Uranus16.1699
Neptune27.8243

Observations

464 total observations over interval: 2003 01 08.33045 – 2023 05 14.294339
These data are available for download (format description).

Date (UT) J2000 RA J2000 Dec Magn Location Ref
2003 01 08.33045 07 17 43.37 +18 50 06.4 19.7   704 – Lincoln Laboratory ETS, New Mexico MPS 167114
2003 01 08.35991 07 17 41.27 +18 50 08.8 19.6   704 – Lincoln Laboratory ETS, New Mexico MPS 167114
2003 01 08.37462 07 17 40.30 +18 50 09.5 20.3   704 – Lincoln Laboratory ETS, New Mexico MPS 167114
2003 01 13.27563 07 12 04.00 +18 56 59.5 19.2   644 – Palomar Mountain/NEAT MPS 167114
2003 01 13.34172 07 11 59.34 +18 57 05.5 20.7   644 – Palomar Mountain/NEAT MPS 167114
2003 01 13.40470 07 11 54.92 +18 57 10.2 19.5   644 – Palomar Mountain/NEAT MPS 167114
2005 10 26.33251 03 50 28.87 +20 37 25.5 20.2 V 691 – Steward Observatory, Kitt Peak-Spacewatch MPS 155444
2005 10 26.34978 03 50 28.12 +20 37 21.9 19.9 V 691 – Steward Observatory, Kitt Peak-Spacewatch MPS 155444
2005 10 26.36705 03 50 27.37 +20 37 18.2 19.7 V 691 – Steward Observatory, Kitt Peak-Spacewatch MPS 155444
2005 11 01.31452 03 45 58.60 +20 14 02.0 18.9   704 – Lincoln Laboratory ETS, New Mexico MPS 167114
2005 11 01.32658 03 45 57.92 +20 13 59.5 19.6   704 – Lincoln Laboratory ETS, New Mexico MPS 167114
2005 11 01.33869 03 45 57.16 +20 13 56.8 19.2   704 – Lincoln Laboratory ETS, New Mexico MPS 167114
2005 11 01.35074 03 45 56.19 +20 13 52.9 18.2   704 – Lincoln Laboratory ETS, New Mexico MPS 167114
2005 11 07.31400 03 40 30.19 +19 46 19.8 18.8   704 – Lincoln Laboratory ETS, New Mexico MPS 152417
2005 11 07.32629 03 40 29.41 +19 46 16.6 19.1   704 – Lincoln Laboratory ETS, New Mexico MPS 152417
2005 11 07.36331 03 40 27.10 +19 46 05.4 19.0   704 – Lincoln Laboratory ETS, New Mexico MPS 152417
2005 11 20.88535 03 26 29.43 +18 34 01.5 18.5 R 143 – Gnosca MPS 152417
2005 11 20.90393 03 26 28.23 +18 33 55.6 18.6 R 143 – Gnosca MPS 152417
2005 11 20.91834 03 26 27.29 +18 33 50.9 18.7 R 143 – Gnosca MPS 152417
2005 11 20.93578 03 26 26.17 +18 33 45.3 18.7 R 143 – Gnosca MPS 152417
2005 11 25.30947 03 22 00.62 +18 09 57.0 19.0 V G96 – Mt. Lemmon Survey MPS 152417
2005 11 25.31836 03 22 00.08 +18 09 54.3 18.9 V G96 – Mt. Lemmon Survey MPS 152417
2005 11 25.32644 03 21 59.58 +18 09 51.6 18.9 V G96 – Mt. Lemmon Survey MPS 152417
2005 11 25.33427 03 21 59.11 +18 09 49.1 18.8 V G96 – Mt. Lemmon Survey MPS 152417
2005 11 29.17299 03 18 21.50 +17 49 40.3 19.2 R 699 – Lowell Observatory-LONEOS MPS 152417
2005 11 29.19582 03 18 20.18 +17 49 32.3   699 – Lowell Observatory-LONEOS MPS 152417
2005 11 29.21861 03 18 18.92 +17 49 24.1   699 – Lowell Observatory-LONEOS MPS 152417
2005 11 29.24142 03 18 17.52 +17 49 17.9   699 – Lowell Observatory-LONEOS MPS 152417
2005 12 01.25584 03 16 30.83 +17 39 13.0 19.6   704 – Lincoln Laboratory ETS, New Mexico MPS 153927
2005 12 01.26936 03 16 30.09 +17 39 07.9 19.6   704 – Lincoln Laboratory ETS, New Mexico MPS 153927
2005 12 01.28259 03 16 29.39 +17 39 04.3 19.9   704 – Lincoln Laboratory ETS, New Mexico MPS 153927
2005 12 01.29558 03 16 28.69 +17 39 00.0 20.5   704 – Lincoln Laboratory ETS, New Mexico MPS 153927
2005 12 01.90483 03 15 57.88 +17 35 59.8 19.5 R 143 – Gnosca MPS 153927
2005 12 01.91262 03 15 57.50 +17 35 57.9 19.5 R 143 – Gnosca MPS 153927
2005 12 01.92041 03 15 57.12 +17 35 55.7 19.7 R 143 – Gnosca MPS 153927
2005 12 01.92820 03 15 56.68 +17 35 53.4 19.5 R 143 – Gnosca MPS 153927
2005 12 02.22480 03 15 41.86 +17 34 28.7 19.0 V G96 – Mt. Lemmon Survey MPS 153927
2005 12 02.23417 03 15 41.36 +17 34 26.1 19.1 V G96 – Mt. Lemmon Survey MPS 153927
2005 12 02.24325 03 15 40.86 +17 34 23.4 19.1 V G96 – Mt. Lemmon Survey MPS 153927
2005 12 02.25242 03 15 40.39 +17 34 20.9 19.1 V G96 – Mt. Lemmon Survey MPS 153927
2005 12 04.19974 03 14 06.48 +17 25 11.3 19.5   704 – Lincoln Laboratory ETS, New Mexico MPS 153927
2005 12 04.21241 03 14 05.90 +17 25 07.6 20.0   704 – Lincoln Laboratory ETS, New Mexico MPS 153927
2005 12 04.22507 03 14 05.26 +17 25 04.4 20.0   704 – Lincoln Laboratory ETS, New Mexico MPS 153927
2005 12 04.23787 03 14 04.59 +17 25 00.9 19.9   704 – Lincoln Laboratory ETS, New Mexico MPS 153927
2005 12 04.25070 03 14 04.02 +17 24 56.9 19.7   704 – Lincoln Laboratory ETS, New Mexico MPS 153927
2005 12 06.26661 03 12 33.84 +17 15 58.4 19.5   704 – Lincoln Laboratory ETS, New Mexico MPS 153927
2005 12 06.27932 03 12 33.28 +17 15 55.0 19.6   704 – Lincoln Laboratory ETS, New Mexico MPS 153927
2005 12 06.29220 03 12 32.77 +17 15 51.1 19.7   704 – Lincoln Laboratory ETS, New Mexico MPS 153927
2005 12 18.73383 03 06 22.43 +16 34 07.5 19.6 R 143 – Gnosca MPS 156129
2005 12 18.77610 03 06 21.67 +16 34 03.5   143 – Gnosca MPS 156129
2006 01 04.25779 03 07 06.67 +16 20 48.6 19.7 V G96 – Mt. Lemmon Survey MPS 157830
2006 01 04.26454 03 07 06.78 +16 20 49.1 20.1 V G96 – Mt. Lemmon Survey MPS 157830
2006 01 04.27131 03 07 06.92 +16 20 49.2 20.3 V G96 – Mt. Lemmon Survey MPS 157830
2006 01 04.27808 03 07 07.06 +16 20 49.2 20.2 V G96 – Mt. Lemmon Survey MPS 157830
2006 01 04.77244 03 07 18.27 +16 21 09.1   143 – Gnosca MPS 157830
2006 01 04.78465 03 07 18.52 +16 21 09.4   143 – Gnosca MPS 157830
2007 04 11.34609 14 54 54.91 -17 47 06.5 21.4 V 691 – Steward Observatory, Kitt Peak-Spacewatch MPS 206201
2007 04 11.36369 14 54 54.04 -17 47 02.1 21.2 V 691 – Steward Observatory, Kitt Peak-Spacewatch MPS 206201
2007 04 11.38130 14 54 53.15 -17 46 58.0 20.8 V 691 – Steward Observatory, Kitt Peak-Spacewatch MPS 206201
2007 04 23.34288 14 43 59.68 -16 49 51.6   691 – Steward Observatory, Kitt Peak-Spacewatch MPS 208105
2007 04 23.36243 14 43 58.47 -16 49 44.8   691 – Steward Observatory, Kitt Peak-Spacewatch MPS 208105
2007 04 23.38149 14 43 57.28 -16 49 38.7   691 – Steward Observatory, Kitt Peak-Spacewatch MPS 208105
2007 05 13.26066 14 23 45.09 -14 54 42.3 21.1 V G96 – Mt. Lemmon Survey MPS 208969
2007 05 13.26644 14 23 44.70 -14 54 41.1 21.0 V G96 – Mt. Lemmon Survey MPS 208969
2007 05 13.27237 14 23 44.37 -14 54 38.7 20.7 V G96 – Mt. Lemmon Survey MPS 208969
2007 05 13.27822 14 23 43.98 -14 54 36.5 20.5 V G96 – Mt. Lemmon Survey MPS 208969
2008 08 24.35338 00 24 47.53 +06 17 25.6   691 – Steward Observatory, Kitt Peak-Spacewatch MPS 254512
2008 08 24.37094 00 24 47.14 +06 17 23.7   691 – Steward Observatory, Kitt Peak-Spacewatch MPS 254512
2008 08 24.38849 00 24 46.73 +06 17 22.2   691 – Steward Observatory, Kitt Peak-Spacewatch MPS 254512
2008 09 04.31162 00 19 19.04 +05 46 37.6 19.8 V 691 – Steward Observatory, Kitt Peak-Spacewatch MPS 255230
2008 09 04.32919 00 19 18.29 +05 46 33.4 19.8 V 691 – Steward Observatory, Kitt Peak-Spacewatch MPS 255230
2008 09 04.34422 00 19 17.66 +05 46 29.9 19.8 V 691 – Steward Observatory, Kitt Peak-Spacewatch MPS 255230
2008 09 20.32468 00 06 17.02 +04 18 24.2 19.0 V G96 – Mt. Lemmon Survey MPS 256717
2008 09 20.33073 00 06 16.66 +04 18 21.8 19.2 V G96 – Mt. Lemmon Survey MPS 256717
2008 09 20.33691 00 06 16.30 +04 18 19.4 19.3 V G96 – Mt. Lemmon Survey MPS 256717
2008 09 20.34303 00 06 15.94 +04 18 16.7 19.4 V G96 – Mt. Lemmon Survey MPS 256717
2008 09 24.23159 00 02 37.87 +03 51 26.9 19.7   704 – Lincoln Laboratory ETS, New Mexico MPS 256717
2008 09 24.23175 00 02 37.89 +03 51 26.7 19.5   704 – Lincoln Laboratory ETS, New Mexico MPS 256717
2008 09 24.23509 00 02 37.71 +03 51 27.6 19.4 V 703 – Catalina Sky Survey MPS 256717
2008 09 24.24182 00 02 37.28 +03 51 23.9 19.4 V 703 – Catalina Sky Survey MPS 256717
2008 09 24.24367 00 02 37.13 +03 51 21.4 19.8   704 – Lincoln Laboratory ETS, New Mexico MPS 256717
2008 09 24.24383 00 02 37.11 +03 51 22.7 19.6   704 – Lincoln Laboratory ETS, New Mexico MPS 256717
2008 09 24.24846 00 02 36.85 +03 51 20.8 19.5 V 703 – Catalina Sky Survey MPS 256717
2008 09 24.25502 00 02 36.52 +03 51 16.8 19.2 V 703 – Catalina Sky Survey MPS 256717
2008 09 24.25578 00 02 36.39 +03 51 16.6 19.5   704 – Lincoln Laboratory ETS, New Mexico MPS 256717
2008 09 24.25594 00 02 36.41 +03 51 16.6 19.3   704 – Lincoln Laboratory ETS, New Mexico MPS 256717
2008 09 24.26786 00 02 35.67 +03 51 11.5 19.2   704 – Lincoln Laboratory ETS, New Mexico MPS 256717
2008 09 24.26802 00 02 35.70 +03 51 12.4 19.5   704 – Lincoln Laboratory ETS, New Mexico MPS 256717
2008 09 24.27994 00 02 34.94 +03 51 05.8 19.5   704 – Lincoln Laboratory ETS, New Mexico MPS 256717
